Weather Service Report


077 
ASUS44 KFWD 220001
RWRTX 
NORTH TEXAS HOURLY WEATHER ROUNDUP
NATIONAL WEATHER SERVICE FORT WORTH TX
600 PM CST SUN DEC 21 2014

NOTE: "FAIR" INDICATES FEW OR NO CLOUDS BELOW 12,000 FEET WITH NO
SIGNIFICANT WEATHER AND/OR OBSTRUCTIONS TO VISIBILITY.

TXZ118-119-220100-
DALLAS/FORT WORTH METROPLEX
  
CITY           SKY/WX    TMP DP  RH WIND       PRES   REMARKS
DFW AIRPORT    CLOUDY    51  45  79 S16       29.82F                  
6HR MIN TEMP:  50; 6HR MAX TEMP:  52;                                

DALLAS LOVE    CLOUDY    52  45  77 S15       29.85F                  
6HR MIN TEMP:  50; 6HR MAX TEMP:  52;                                

FTW MEACHAM    CLOUDY    53  46  77 SE12      29.81F                  
6HR MIN TEMP:  50; 6HR MAX TEMP:  53;                                

DAL-EXECUTIVE  CLOUDY    53  45  74 S12       29.84F                  
6HR MIN TEMP:  51; 6HR MAX TEMP:  53;                                

FTW-ALLIANCE   CLOUDY    51  46  83 S13       29.81F                  
6HR MIN TEMP:  49; 6HR MAX TEMP:  51;                                

FTW-SPINKS     CLOUDY    54  46  76 SE13      29.84F                  
ARLINGTON      CLOUDY    53  45  74 SE13G20   29.84F                  
6HR MIN TEMP:  51; 6HR MAX TEMP:  53;                                

MESQUITE       CLOUDY    50  45  81 SE9       29.87S                  
LANCASTER      CLOUDY    51  44  77 S10       29.88S                  
6HR MIN TEMP:  49; 6HR MAX TEMP:  51;                                

$$

TXZ091>094-102>105-117-120-121-131>134-220100-
NORTH CENTRAL TEXAS
  
CITY           SKY/WX    TMP DP  RH WIND       PRES   REMARKS
BRIDGEPORT     CLEAR     50  46  87 S9        29.80F                  
6HR MIN TEMP:  49; 6HR MAX TEMP:  53;                                

DENTON         CLOUDY    51  45  79 SE17      29.81F                  
6HR MIN TEMP:  49; 6HR MAX TEMP:  51;                                

MCKINNEY       CLOUDY    50  45  83 S16       29.85S                  
6HR MIN TEMP:  49; 6HR MAX TEMP:  50;                                

ROCKWALL       CLOUDY    50  46  86 S9        29.85F                  
6HR MIN TEMP:  49; 6HR MAX TEMP:  51;                                

TERRELL        CLOUDY    52  46  80 S12       29.89R                  
6HR MIN TEMP:  50; 6HR MAX TEMP:  52;                                

WAXAHACHIE     CLOUDY    50  48  90 SE12      29.87F                  
6HR MIN TEMP:  49; 6HR MAX TEMP:  52;                                

$$

TXZ083>090-098>101-113>116-127>130-139>142-154-155-220100-
WESTERN NORTH TEXAS
  
CITY           SKY/WX    TMP DP  RH WIND       PRES   REMARKS
WICHITA FALLS  CLEAR     51  44  77 SE15      29.71F                  
6HR MIN TEMP:  49; 6HR MAX TEMP:  56;                                

ABILENE        CLEAR     57  41  55 S13       29.72F                  
6HR MIN TEMP:  53; 6HR MAX TEMP:  61;                                

MINERAL WELLS  MOCLDY    53  45  74 S12       29.77F                  
6HR MIN TEMP:  50; 6HR MAX TEMP:  54;                                

STEPHENVILLE   CLOUDY    53  46  78 S7        29.82F                  
6HR MIN TEMP:  50; 6HR MAX TEMP:  54;                                

COMANCHE       CLEAR     52  46  81 S7        29.79F                  
6HR MIN TEMP:  51; 6HR MAX TEMP:  56;                                

$$

TXZ143>147-156>162-174-175-220100-
CENTRAL TEXAS
  
CITY           SKY/WX    TMP DP  RH WIND       PRES   REMARKS
WACO           CLOUDY    53  47  79 S14       29.86S                  
6HR MIN TEMP:  52; 6HR MAX TEMP:  54;                                

WACO-TSTC      CLOUDY    54  46  76 SE10      29.88R                  
WACO-MCGREGOR  CLOUDY    52  45  76 S12       29.87R                  
6HR MIN TEMP:  52; 6HR MAX TEMP:  54;                                

CORSICANA      CLOUDY    53  46  77 S9        29.90R                  
6HR MIN TEMP:  50; 6HR MAX TEMP:  53;                                

MEXIA          CLOUDY    51  46  83 S12       29.87F                  
6HR MIN TEMP:  49; 6HR MAX TEMP:  52;                                

TEMPLE         CLOUDY    54  45  71 S13       29.86R                  
6HR MIN TEMP:  54; 6HR MAX TEMP:  54;                                

KILLEEN        CLOUDY    54  50  87 S8        29.84F                  
6HR MIN TEMP:  51; 6HR MAX TEMP:  54;                                

KILLEEN-SKYLRK CLOUDY    55  45  67 SE10      29.82F                  
6HR MIN TEMP:  54; 6HR MAX TEMP:  55;                                

FORT HOOD      CLOUDY    54  49  83 SE10      29.84S                  
6HR MIN TEMP:  53; 6HR MAX TEMP:  55;                                

HAMILTON       PTCLDY    52  48  87 S13       29.81F                  
6HR MIN TEMP:  50; 6HR MAX TEMP:  55;                                

$$

TXZ095>097-106>112-122>126-135>138-148>153-164>167-220100-
EAST TEXAS
  
CITY           SKY/WX    TMP DP  RH WIND       PRES   REMARKS
PARIS          CLOUDY    48  41  76 SE9       29.90S                  
6HR MIN TEMP:  48; 6HR MAX TEMP:  50;                                

MINEOLA        CLOUDY    52  46  82 SE5       29.91S                  
TYLER          CLOUDY    51  43  74 S7        29.90S                  
6HR MIN TEMP:  50; 6HR MAX TEMP:  53;                                

LONGVIEW       CLOUDY    51  45  79 S9        29.90F                  
6HR MIN TEMP:  47; 6HR MAX TEMP:  52;                                

PALESTINE      CLOUDY    52  47  82 SE9       29.90F                  
JACKSONVILLE   CLOUDY    50  46  84 SE8       29.93F                  
NACOGDOCHES    CLOUDY    52  45  76 S5        29.96R                  
6HR MIN TEMP:  48; 6HR MAX TEMP:  52;                                

LUFKIN         CLOUDY    53  47  79 E10       29.94F                  
6HR MIN TEMP:  53; 6HR MAX TEMP:  55;                                

$$

SUPPLEMENTAL OBSERVATIONS (CENTRAL)
  
CITY           SKY/WX    TMP DP  RH WIND       PRES   REMARKS
$$

SUPPLEMENTAL OBSERVATIONS (WEST)
  
CITY           SKY/WX    TMP DP  RH WIND       PRES   REMARKS
$$

SUPPLEMENTAL OBSERVATIONS (EAST)
  
CITY           SKY/WX    TMP DP  RH WIND       PRES   REMARKS
$$

SUPPLEMENTAL OBSERVATIONS ARE A COLLECTION OF AUTOMATED INSTRUMENTS
THAT ARE MAINTAINED BY A VARIETY OF FEDERAL AND STATE AGENCIES. 
CERTAIN ELEMENTS...SUCH AS HUMIDITY VALUES AND SUSTAINED WIND 
SPEEDS...MAY BE APPROXIMATED.


Return to Home page


Western Regional Climate Center, wrcc@dri.edu